Time,TemperatureF,DewpointF,PressureIn,WindDirection,WindDirectionDegrees,WindSpeedMPH,WindSpeedGustMPH,Humidity,HourlyPrecipIn,Conditions,Clouds,dailyrainin,SoftwareType,DateUTC
2013-03-07 00:02:00,51.3,40.3,30.12,NNE,22,0.0,1.8,66,0.00,,---,0.00,VWS V13.01,2013-03-06 22:02:00,
2013-03-07 00:07:00,51.3,40.3,30.12,NW,315,2.9,2.9,66,0.00,,---,0.00,VWS V13.01,2013-03-06 22:07:00,
2013-03-07 00:12:00,51.4,40.4,30.13,NW,315,0.0,2.5,66,0.00,,---,0.00,VWS V13.01,2013-03-06 22:12:00,
2013-03-07 00:17:00,51.3,40.3,30.13,NNE,22,0.0,2.9,66,0.00,,---,0.00,VWS V13.01,2013-03-06 22:17:00,
2013-03-07 00:22:00,51.3,40.3,30.12,NW,315,0.0,1.8,66,0.00,,---,0.00,VWS V13.01,2013-03-06 22:22:00,
2013-03-07 00:27:00,51.3,40.3,30.13,NNW,337,1.6,1.6,66,0.00,,---,0.00,VWS V13.01,2013-03-06 22:27:00,
2013-03-07 00:32:00,51.3,40.3,30.12,NE,45,0.9,1.6,66,0.00,,---,0.00,VWS V13.01,2013-03-06 22:32:00,
2013-03-07 00:37:00,51.3,40.3,30.12,ENE,67,0.0,1.8,66,0.00,,---,0.00,VWS V13.01,2013-03-06 22:37:00,
2013-03-07 00:42:00,51.3,40.7,30.12,ENE,67,0.0,1.8,67,0.00,,---,0.00,VWS V13.01,2013-03-06 22:42:00,
2013-03-07 00:47:00,51.3,40.7,30.12,West,270,0.0,1.8,67,0.00,,---,0.00,VWS V13.01,2013-03-06 22:47:00,
2013-03-07 00:52:00,51.1,40.5,30.12,NW,315,0.0,1.1,67,0.00,,---,0.00,VWS V13.01,2013-03-06 22:52:00,
2013-03-07 00:57:00,51.1,40.5,30.12,NNW,337,0.0,1.8,67,0.00,,---,0.00,VWS V13.01,2013-03-06 22:57:00,
2013-03-07 01:02:00,51.1,40.5,30.13,North,0,0.0,1.8,67,0.00,,---,0.00,VWS V13.01,2013-03-06 23:02:00,
2013-03-07 01:08:00,51.1,40.5,30.12,North,0,0.0,2.5,67,0.00,,---,0.00,VWS V13.01,2013-03-06 23:08:00,
2013-03-07 01:13:00,51.1,40.5,30.12,NNW,337,0.0,2.2,67,0.00,,---,0.00,VWS V13.01,2013-03-06 23:13:00,
2013-03-07 01:18:00,51.1,40.9,30.12,North,0,2.5,2.5,68,0.00,,---,0.00,VWS V13.01,2013-03-06 23:18:00,
2013-03-07 01:23:00,51.1,40.9,30.11,NW,315,0.0,3.6,68,0.00,,---,0.00,VWS V13.01,2013-03-06 23:23:00,
2013-03-07 01:28:00,51.1,40.9,30.11,North,0,0.0,1.3,68,0.00,,---,0.00,VWS V13.01,2013-03-06 23:28:00,
2013-03-07 01:33:00,51.1,40.9,30.11,NNW,337,2.5,2.5,68,0.00,,---,0.00,VWS V13.01,2013-03-06 23:33:00,
2013-03-07 01:38:00,51.1,41.3,30.11,NW,315,0.0,1.8,69,0.00,,---,0.00,VWS V13.01,2013-03-06 23:38:00,
2013-03-07 01:43:00,51.1,41.3,30.11,NNE,22,0.0,2.9,69,0.00,,---,0.00,VWS V13.01,2013-03-06 23:43:00,
2013-03-07 01:48:00,50.9,41.1,30.11,NNE,22,0.0,2.5,69,0.00,,---,0.00,VWS V13.01,2013-03-06 23:48:00,
2013-03-07 01:53:00,50.9,41.1,30.10,North,0,0.0,2.5,69,0.00,,---,0.00,VWS V13.01,2013-03-06 23:53:00,
2013-03-07 01:58:00,50.9,41.1,30.10,North,0,1.6,1.6,69,0.00,,---,0.00,VWS V13.01,2013-03-06 23:58:00,
2013-03-07 02:03:00,50.9,41.1,30.09,North,0,0.0,1.3,69,0.00,,---,0.00,VWS V13.01,2013-03-07 00:03:00,
2013-03-07 02:08:00,50.9,41.1,30.09,ENE,67,0.0,1.6,69,0.00,,---,0.00,VWS V13.01,2013-03-07 00:08:00,
2013-03-07 02:13:00,50.9,41.1,30.09,NE,45,0.0,1.6,69,0.00,,---,0.00,VWS V13.01,2013-03-07 00:13:00,
2013-03-07 02:18:00,50.9,41.1,30.09,NNE,22,0.0,2.5,69,0.00,,---,0.00,VWS V13.01,2013-03-07 00:18:00,
2013-03-07 02:23:00,50.9,41.5,30.09,NE,45,0.0,2.5,70,0.00,,---,0.00,VWS V13.01,2013-03-07 00:23:00,
2013-03-07 02:28:00,50.9,41.5,30.09,NNE,22,0.0,1.6,70,0.00,,---,0.00,VWS V13.01,2013-03-07 00:28:00,
2013-03-07 02:33:00,50.9,41.5,30.08,ESE,112,0.0,1.1,70,0.00,,---,0.00,VWS V13.01,2013-03-07 00:33:00,
2013-03-07 02:38:00,50.9,41.5,30.08,ESE,112,0.0,1.1,70,0.00,,---,0.00,VWS V13.01,2013-03-07 00:38:00,
2013-03-07 02:43:00,50.9,41.5,30.08,North,0,0.0,1.1,70,0.00,,---,0.00,VWS V13.01,2013-03-07 00:43:00,
2013-03-07 02:48:00,50.9,41.5,30.09,North,0,0.0,1.1,70,0.00,,---,0.00,VWS V13.01,2013-03-07 00:48:00,
2013-03-07 02:53:00,50.9,41.5,30.09,NNW,337,0.0,1.1,70,0.00,,---,0.00,VWS V13.01,2013-03-07 00:53:00,
2013-03-07 02:58:00,50.9,41.5,30.09,NNW,337,0.0,1.1,70,0.00,,---,0.00,VWS V13.01,2013-03-07 00:58:00,
2013-03-07 03:03:00,50.9,41.8,30.09,NE,45,0.0,1.1,71,0.00,,---,0.00,VWS V13.01,2013-03-07 01:03:00,
2013-03-07 03:08:00,50.9,41.8,30.09,North,0,0.0,1.8,71,0.00,,---,0.00,VWS V13.01,2013-03-07 01:08:00,
2013-03-07 03:13:00,50.9,41.8,30.08,NNE,22,0.0,1.6,71,0.00,,---,0.00,VWS V13.01,2013-03-07 01:13:00,
2013-03-07 03:18:00,50.9,41.8,30.08,NE,45,0.0,3.1,71,0.00,,---,0.00,VWS V13.01,2013-03-07 01:18:00,
2013-03-07 03:23:00,50.9,41.8,30.07,North,0,0.0,2.2,71,0.00,,---,0.00,VWS V13.01,2013-03-07 01:23:00,
2013-03-07 03:28:00,50.9,41.8,30.07,East,90,0.0,2.2,71,0.00,,---,0.00,VWS V13.01,2013-03-07 01:28:00,
2013-03-07 03:33:00,50.7,42.0,30.07,NNE,22,0.0,2.2,72,0.00,,---,0.00,VWS V13.01,2013-03-07 01:33:00,
2013-03-07 03:38:00,50.7,42.0,30.05,North,0,0.0,2.5,72,0.00,,---,0.00,VWS V13.01,2013-03-07 01:38:00,
2013-03-07 03:43:00,50.7,42.0,30.05,ENE,67,0.0,1.3,72,0.00,,---,0.00,VWS V13.01,2013-03-07 01:43:00,
2013-03-07 03:48:00,50.9,42.2,30.06,West,270,0.0,1.6,72,0.00,,---,0.00,VWS V13.01,2013-03-07 01:48:00,
2013-03-07 03:53:00,50.7,42.0,30.06,SSW,202,0.0,1.6,72,0.00,,---,0.00,VWS V13.01,2013-03-07 01:53:00,
2013-03-07 03:58:00,50.9,42.2,30.07,NNW,337,0.0,1.6,72,0.00,,---,0.00,VWS V13.01,2013-03-07 01:58:00,
2013-03-07 04:03:00,50.7,42.0,30.07,NNE,22,0.0,1.6,72,0.00,,---,0.00,VWS V13.01,2013-03-07 02:03:00,
2013-03-07 04:08:00,50.9,42.2,30.06,NNE,22,0.0,1.1,72,0.00,,---,0.00,VWS V13.01,2013-03-07 02:08:00,
2013-03-07 04:13:00,50.7,42.0,30.06,NNE,22,0.0,1.6,72,0.00,,---,0.00,VWS V13.01,2013-03-07 02:13:00,
2013-03-07 04:19:00,50.7,42.4,30.06,North,0,0.0,0.9,73,0.00,,---,0.00,VWS V13.01,2013-03-07 02:19:00,
2013-03-07 04:24:00,50.7,42.4,30.06,NNW,337,0.0,0.9,73,0.00,,---,0.00,VWS V13.01,2013-03-07 02:24:00,
2013-03-07 04:29:00,50.7,42.4,30.06,ENE,67,0.0,0.9,73,0.00,,---,0.00,VWS V13.01,2013-03-07 02:29:00,
2013-03-07 04:34:00,50.7,42.4,30.06,NNW,337,0.0,0.9,73,0.00,,---,0.00,VWS V13.01,2013-03-07 02:34:00,
2013-03-07 04:39:00,50.7,42.4,30.06,North,0,0.0,0.9,73,0.00,,---,0.00,VWS V13.01,2013-03-07 02:39:00,
2013-03-07 04:44:00,50.7,42.4,30.07,NNW,337,0.0,0.7,73,0.00,,---,0.00,VWS V13.01,2013-03-07 02:44:00,
2013-03-07 04:49:00,50.7,42.4,30.07,NNE,22,0.0,0.7,73,0.00,,---,0.00,VWS V13.01,2013-03-07 02:49:00,
2013-03-07 04:54:00,50.5,42.2,30.06,NNE,22,0.0,0.7,73,0.00,,---,0.00,VWS V13.01,2013-03-07 02:54:00,
2013-03-07 04:59:00,50.5,42.2,30.06,ENE,67,0.0,0.7,73,0.00,,---,0.00,VWS V13.01,2013-03-07 02:59:00,
2013-03-07 05:04:00,50.5,42.5,30.05,North,0,0.0,0.7,74,0.00,,---,0.00,VWS V13.01,2013-03-07 03:04:00,
2013-03-07 05:09:00,50.5,42.5,30.05,ENE,67,0.0,2.0,74,0.00,,---,0.00,VWS V13.01,2013-03-07 03:09:00,
2013-03-07 05:14:00,50.5,42.5,30.05,NE,45,0.0,2.0,74,0.00,,---,0.00,VWS V13.01,2013-03-07 03:14:00,
2013-03-07 05:19:00,50.5,42.5,30.05,North,0,0.0,2.0,74,0.00,,---,0.00,VWS V13.01,2013-03-07 03:19:00,
2013-03-07 05:24:00,50.5,42.5,30.05,NNW,337,2.2,2.2,74,0.00,,---,0.00,VWS V13.01,2013-03-07 03:24:00,
2013-03-07 05:29:00,50.5,42.5,30.05,NNE,22,2.5,2.5,74,0.00,,---,0.00,VWS V13.01,2013-03-07 03:29:00,
2013-03-07 05:34:00,50.5,42.5,30.05,NE,45,0.0,2.0,74,0.00,,---,0.00,VWS V13.01,2013-03-07 03:34:00,
2013-03-07 05:39:00,50.5,42.5,30.05,NE,45,0.0,2.0,74,0.00,,---,0.00,VWS V13.01,2013-03-07 03:39:00,
2013-03-07 05:44:00,50.5,42.5,30.04,NNE,22,0.0,1.6,74,0.00,,---,0.00,VWS V13.01,2013-03-07 03:44:00,
2013-03-07 05:49:00,50.5,42.5,30.04,NNE,22,0.0,1.6,74,0.00,,---,0.00,VWS V13.01,2013-03-07 03:49:00,
2013-03-07 05:54:00,50.5,42.5,30.04,North,0,0.0,1.6,74,0.00,,---,0.00,VWS V13.01,2013-03-07 03:54:00,
2013-03-07 05:59:00,50.5,42.5,30.04,NNE,22,0.0,1.6,74,0.00,,---,0.00,VWS V13.01,2013-03-07 03:59:00,
2013-03-07 06:04:00,50.7,42.7,30.05,ENE,67,0.0,1.6,74,0.00,,---,0.00,VWS V13.01,2013-03-07 04:04:00,
2013-03-07 06:09:00,50.7,42.7,30.05,SE,135,0.0,1.6,74,0.00,,---,0.00,VWS V13.01,2013-03-07 04:09:00,
2013-03-07 06:14:00,50.7,42.7,30.06,SE,135,0.0,1.6,74,0.00,,---,0.00,VWS V13.01,2013-03-07 04:14:00,
2013-03-07 06:19:00,50.7,43.1,30.06,WNW,292,0.0,1.6,75,0.00,,---,0.00,VWS V13.01,2013-03-07 04:19:00,
2013-03-07 06:24:00,50.7,43.1,30.05,NNW,337,1.1,1.1,75,0.00,,---,0.00,VWS V13.01,2013-03-07 04:24:00,
2013-03-07 06:29:00,50.7,43.1,30.05,NNW,337,0.0,3.6,75,0.00,,---,0.00,VWS V13.01,2013-03-07 04:29:00,
2013-03-07 06:34:00,50.7,43.1,30.05,ESE,112,0.0,3.6,75,0.00,,---,0.00,VWS V13.01,2013-03-07 04:34:00,
2013-03-07 06:39:00,50.7,43.1,30.05,NNW,337,0.0,2.2,75,0.00,,---,0.00,VWS V13.01,2013-03-07 04:39:00,
2013-03-07 06:44:00,50.7,43.1,30.04,North,0,0.0,1.6,75,0.00,,---,0.00,VWS V13.01,2013-03-07 04:44:00,
2013-03-07 06:49:00,50.7,43.1,30.04,North,0,0.9,1.3,75,0.00,,---,0.00,VWS V13.01,2013-03-07 04:49:00,
2013-03-07 06:54:00,50.7,43.1,30.03,North,0,1.1,1.1,75,0.00,,---,0.00,VWS V13.01,2013-03-07 04:54:00,
2013-03-07 06:59:00,50.7,43.1,30.03,NNE,22,3.6,3.8,75,0.00,,---,0.00,VWS V13.01,2013-03-07 04:59:00,
2013-03-07 07:00:00,50.7,43.1,30.03,North,0,1.1,3.8,75,0.00,,---,0.00,VWS V13.01,2013-03-07 05:00:00,
2013-03-07 07:01:00,50.7,43.1,30.03,NNW,337,0.0,4.9,75,0.00,,---,0.00,VWS V13.01,2013-03-07 05:01:00,
2013-03-07 07:06:00,50.7,43.1,30.03,North,0,0.0,2.2,75,0.00,,---,0.00,VWS V13.01,2013-03-07 05:06:00,
2013-03-07 07:11:00,50.7,43.1,30.03,North,0,2.7,3.6,75,0.00,,---,0.00,VWS V13.01,2013-03-07 05:11:00,
2013-03-07 07:16:00,50.7,43.1,30.02,North,0,0.0,2.7,75,0.00,,---,0.00,VWS V13.01,2013-03-07 05:16:00,
2013-03-07 07:21:00,50.7,43.1,30.03,NNW,337,0.0,2.9,75,0.00,,---,0.00,VWS V13.01,2013-03-07 05:21:00,
2013-03-07 07:26:00,50.7,43.1,30.03,West,270,0.0,2.9,75,0.00,,---,0.00,VWS V13.01,2013-03-07 05:26:00,
2013-03-07 07:31:00,50.7,43.1,30.04,North,0,0.0,0.7,75,0.00,,---,0.00,VWS V13.01,2013-03-07 05:31:00,
2013-03-07 07:36:00,50.7,43.1,30.04,NNW,337,0.0,0.7,75,0.00,,---,0.00,VWS V13.01,2013-03-07 05:36:00,
2013-03-07 07:41:00,50.7,43.1,30.04,NW,315,1.8,1.8,75,0.00,,---,0.00,VWS V13.01,2013-03-07 05:41:00,
2013-03-07 07:46:00,50.7,43.1,30.05,WSW,247,0.0,1.8,75,0.00,,---,0.00,VWS V13.01,2013-03-07 05:46:00,
2013-03-07 07:51:00,50.7,43.1,30.05,NW,315,0.0,2.7,75,0.00,,---,0.00,VWS V13.01,2013-03-07 05:51:00,
2013-03-07 07:56:00,50.7,43.1,30.05,NW,315,0.9,0.9,75,0.00,,---,0.00,VWS V13.01,2013-03-07 05:56:00,
2013-03-07 08:01:00,50.9,43.3,30.06,NW,315,0.0,1.1,75,0.00,,---,0.00,VWS V13.01,2013-03-07 06:01:00,
2013-03-07 08:06:00,50.9,43.3,30.06,North,0,0.0,1.1,75,0.00,,---,0.00,VWS V13.01,2013-03-07 06:06:00,
2013-03-07 08:11:00,51.1,43.5,30.06,SE,135,0.0,4.7,75,0.00,,---,0.00,VWS V13.01,2013-03-07 06:11:00,
2013-03-07 08:16:00,51.3,43.7,30.07,SSE,157,0.0,1.1,75,0.00,,---,0.00,VWS V13.01,2013-03-07 06:16:00,
2013-03-07 08:21:00,51.4,43.8,30.06,SSE,157,1.8,1.8,75,0.00,,---,0.00,VWS V13.01,2013-03-07 06:21:00,
2013-03-07 08:26:00,51.4,43.8,30.06,South,180,0.0,2.0,75,0.00,,---,0.00,VWS V13.01,2013-03-07 06:26:00,
2013-03-07 08:31:00,51.6,44.0,30.07,East,90,0.0,2.0,75,0.00,,---,0.00,VWS V13.01,2013-03-07 06:31:00,
2013-03-07 08:36:00,51.6,44.0,30.07,NNW,337,0.0,2.0,75,0.00,,---,0.00,VWS V13.01,2013-03-07 06:36:00,
2013-03-07 08:41:00,51.8,44.1,30.07,SSE,157,0.0,2.0,75,0.00,,---,0.00,VWS V13.01,2013-03-07 06:41:00,
2013-03-07 08:47:00,51.8,44.1,30.07,NNW,337,0.0,2.0,75,0.00,,---,0.00,VWS V13.01,2013-03-07 06:47:00,
2013-03-07 08:52:00,52.0,44.3,30.07,NE,45,0.0,2.0,75,0.00,,---,0.00,VWS V13.01,2013-03-07 06:52:00,
2013-03-07 08:57:00,52.0,44.3,30.07,ENE,67,0.0,2.0,75,0.00,,---,0.00,VWS V13.01,2013-03-07 06:57:00,
2013-03-07 09:02:00,52.2,44.5,30.07,ENE,67,0.0,2.0,75,0.00,,---,0.00,VWS V13.01,2013-03-07 07:02:00,
2013-03-07 09:07:00,52.2,44.5,30.07,NE,45,0.0,2.0,75,0.00,,---,0.00,VWS V13.01,2013-03-07 07:07:00,
2013-03-07 09:12:00,52.2,44.5,30.07,ENE,67,0.0,2.0,75,0.00,,---,0.00,VWS V13.01,2013-03-07 07:12:00,
2013-03-07 09:17:00,52.3,44.6,30.07,ENE,67,0.0,2.0,75,0.00,,---,0.00,VWS V13.01,2013-03-07 07:17:00,
2013-03-07 09:22:00,52.3,44.6,30.06,ENE,67,0.0,2.0,75,0.00,,---,0.00,VWS V13.01,2013-03-07 07:22:00,
2013-03-07 09:27:00,52.3,44.6,30.07,East,90,0.0,2.0,75,0.00,,---,0.00,VWS V13.01,2013-03-07 07:27:00,
2013-03-07 09:32:00,52.3,45.0,30.08,South,180,0.0,2.0,76,0.00,,---,0.00,VWS V13.01,2013-03-07 07:32:00,
2013-03-07 09:37:00,52.5,45.2,30.08,South,180,0.0,2.0,76,0.00,,---,0.02,VWS V13.01,2013-03-07 07:37:00,
2013-03-07 09:42:00,52.5,45.2,30.08,SSW,202,0.0,2.0,76,0.00,,---,0.02,VWS V13.01,2013-03-07 07:42:00,
2013-03-07 09:47:00,52.5,45.2,30.08,SSW,202,0.0,2.0,76,0.00,,---,0.02,VWS V13.01,2013-03-07 07:47:00,
2013-03-07 09:52:00,52.7,45.4,30.08,ENE,67,0.0,2.0,76,0.00,,---,0.02,VWS V13.01,2013-03-07 07:52:00,
2013-03-07 09:57:00,52.9,45.9,30.08,ENE,67,0.0,2.0,77,0.00,,---,0.02,VWS V13.01,2013-03-07 07:57:00,
2013-03-07 10:02:00,52.9,45.9,30.08,ESE,112,0.0,2.0,77,0.00,,---,0.04,VWS V13.01,2013-03-07 08:02:00,
2013-03-07 10:07:00,52.9,45.9,30.08,ESE,112,0.0,2.0,77,0.00,,---,0.04,VWS V13.01,2013-03-07 08:07:00,
2013-03-07 10:12:00,52.9,46.2,30.08,ESE,112,0.0,2.0,78,0.00,,---,0.04,VWS V13.01,2013-03-07 08:12:00,
2013-03-07 10:17:00,52.9,46.2,30.08,SSE,157,0.0,2.0,78,0.00,,---,0.04,VWS V13.01,2013-03-07 08:17:00,
2013-03-07 10:22:00,52.9,46.2,30.09,West,270,0.0,2.0,78,0.00,,---,0.06,VWS V13.01,2013-03-07 08:22:00,
2013-03-07 10:27:00,52.7,46.0,30.08,SSW,202,0.0,2.0,78,0.00,,---,0.06,VWS V13.01,2013-03-07 08:27:00,
2013-03-07 10:32:00,52.7,46.0,30.08,NNW,337,0.0,2.0,78,0.00,,---,0.06,VWS V13.01,2013-03-07 08:32:00,
2013-03-07 10:37:00,52.7,46.0,30.08,NNW,337,0.0,2.0,78,0.00,,---,0.08,VWS V13.01,2013-03-07 08:37:00,
2013-03-07 10:42:00,52.5,46.2,30.08,ESE,112,0.0,2.0,79,0.00,,---,0.08,VWS V13.01,2013-03-07 08:42:00,
2013-03-07 10:47:00,52.5,46.2,30.07,ESE,112,0.0,2.0,79,0.00,,---,0.10,VWS V13.01,2013-03-07 08:47:00,
2013-03-07 10:52:00,52.5,46.2,30.07,NNE,22,0.0,2.0,79,0.00,,---,0.10,VWS V13.01,2013-03-07 08:52:00,
2013-03-07 10:57:00,52.5,46.5,30.06,NNE,22,0.0,2.0,80,0.00,,---,0.10,VWS V13.01,2013-03-07 08:57:00,
2013-03-07 11:02:00,52.5,46.5,30.05,North,0,4.5,4.5,80,0.00,,---,0.10,VWS V13.01,2013-03-07 09:02:00,
2013-03-07 11:08:00,52.7,46.7,30.05,North,0,3.1,4.5,80,0.00,,---,0.10,VWS V13.01,2013-03-07 09:08:00,
2013-03-07 11:13:00,52.7,46.7,30.04,WNW,292,0.0,1.8,80,0.00,,---,0.10,VWS V13.01,2013-03-07 09:13:00,
2013-03-07 11:18:00,52.7,46.7,30.05,NW,315,1.6,1.6,80,0.00,,---,0.10,VWS V13.01,2013-03-07 09:18:00,
2013-03-07 11:23:00,52.7,46.7,30.04,North,0,1.8,1.8,80,0.00,,---,0.10,VWS V13.01,2013-03-07 09:23:00,
2013-03-07 11:28:00,52.7,46.7,30.04,North,0,0.0,3.8,80,0.00,,---,0.10,VWS V13.01,2013-03-07 09:28:00,
2013-03-07 11:33:00,52.7,46.7,30.04,WNW,292,0.0,2.7,80,0.00,,---,0.10,VWS V13.01,2013-03-07 09:33:00,
2013-03-07 11:38:00,52.7,47.0,30.05,North,0,0.0,2.7,81,0.00,,---,0.10,VWS V13.01,2013-03-07 09:38:00,
2013-03-07 11:43:00,52.7,47.0,30.05,South,180,0.0,2.7,81,0.00,,---,0.10,VWS V13.01,2013-03-07 09:43:00,
2013-03-07 11:48:00,52.9,47.2,30.05,South,180,0.0,2.7,81,0.00,,---,0.12,VWS V13.01,2013-03-07 09:48:00,
2013-03-07 11:53:00,52.9,47.2,30.06,SSW,202,0.0,2.2,81,0.00,,---,0.12,VWS V13.01,2013-03-07 09:53:00,
2013-03-07 11:58:00,52.9,47.2,30.06,SSW,202,0.0,2.2,81,0.00,,---,0.12,VWS V13.01,2013-03-07 09:58:00,
2013-03-07 12:03:00,53.2,47.5,30.05,SSW,202,0.0,2.2,81,0.00,,---,0.15,VWS V13.01,2013-03-07 10:03:00,
2013-03-07 12:08:00,52.9,47.2,30.04,North,0,0.0,2.2,81,0.00,,---,0.15,VWS V13.01,2013-03-07 10:08:00,
2013-03-07 12:13:00,52.9,47.2,30.02,North,0,4.0,6.7,81,0.00,,---,0.15,VWS V13.01,2013-03-07 10:13:00,
2013-03-07 12:18:00,52.5,46.8,30.02,NNE,22,2.7,3.1,81,0.00,,---,0.15,VWS V13.01,2013-03-07 10:18:00,
2013-03-07 12:23:00,52.3,46.7,30.02,ENE,67,0.0,2.0,81,0.00,,---,0.15,VWS V13.01,2013-03-07 10:23:00,
2013-03-07 12:28:00,52.3,46.7,30.02,NE,45,0.0,2.2,81,0.00,,---,0.15,VWS V13.01,2013-03-07 10:28:00,
2013-03-07 12:33:00,52.3,46.7,30.01,NNW,337,1.1,6.3,81,0.00,,---,0.15,VWS V13.01,2013-03-07 10:33:00,
2013-03-07 12:38:00,52.3,46.7,30.01,ENE,67,0.0,4.0,81,0.00,,---,0.15,VWS V13.01,2013-03-07 10:38:00,
2013-03-07 12:43:00,52.3,46.7,30.01,NNW,337,3.1,3.4,81,0.00,,---,0.15,VWS V13.01,2013-03-07 10:43:00,
2013-03-07 12:48:00,52.3,46.7,30.01,NNW,337,0.9,0.9,81,0.00,,---,0.15,VWS V13.01,2013-03-07 10:48:00,
2013-03-07 12:53:00,52.3,46.7,30.01,NE,45,0.0,1.3,81,0.00,,---,0.15,VWS V13.01,2013-03-07 10:53:00,
2013-03-07 12:58:00,52.5,46.8,30.00,NNW,337,2.7,2.7,81,0.00,,---,0.15,VWS V13.01,2013-03-07 10:58:00,
2013-03-07 13:03:00,52.7,47.4,30.00,North,0,4.5,4.5,82,0.00,,---,0.15,VWS V13.01,2013-03-07 11:03:00,
2013-03-07 13:08:00,52.9,47.2,29.99,NE,45,2.0,2.0,81,0.00,,---,0.15,VWS V13.01,2013-03-07 11:08:00,
2013-03-07 13:13:00,52.9,47.2,29.99,North,0,4.9,6.0,81,0.00,,---,0.15,VWS V13.01,2013-03-07 11:13:00,
2013-03-07 13:18:00,53.2,47.9,29.98,NNE,22,1.6,3.8,82,0.00,,---,0.15,VWS V13.01,2013-03-07 11:18:00,
2013-03-07 13:23:00,53.2,47.5,29.98,North,0,0.0,2.2,81,0.00,,---,0.15,VWS V13.01,2013-03-07 11:23:00,
2013-03-07 13:28:00,53.4,47.7,29.98,North,0,3.1,4.0,81,0.00,,---,0.15,VWS V13.01,2013-03-07 11:28:00,
2013-03-07 13:33:00,53.4,47.7,29.98,North,0,2.7,5.1,81,0.00,,---,0.15,VWS V13.01,2013-03-07 11:33:00,
2013-03-07 13:38:00,53.4,47.7,29.98,North,0,2.7,3.6,81,0.00,,---,0.15,VWS V13.01,2013-03-07 11:38:00,
2013-03-07 13:43:00,53.8,48.1,29.98,NNE,22,1.8,3.8,81,0.00,,---,0.15,VWS V13.01,2013-03-07 11:43:00,
2013-03-07 13:49:00,53.8,48.1,29.97,NE,45,0.0,0.7,81,0.00,,---,0.15,VWS V13.01,2013-03-07 11:49:00,
2013-03-07 13:54:00,53.8,48.1,29.97,South,180,0.0,2.2,81,0.00,,---,0.15,VWS V13.01,2013-03-07 11:54:00,
2013-03-07 13:59:00,54.0,48.3,29.98,ESE,112,1.1,1.1,81,0.00,,---,0.15,VWS V13.01,2013-03-07 11:59:00,
2013-03-07 14:04:00,54.0,48.3,29.98,ENE,67,0.0,1.1,81,0.00,,---,0.15,VWS V13.01,2013-03-07 12:04:00,
2013-03-07 14:09:00,54.1,48.4,29.97,NNE,22,0.0,1.1,81,0.00,,---,0.15,VWS V13.01,2013-03-07 12:09:00,
2013-03-07 14:14:00,54.1,48.4,29.97,North,0,0.0,1.1,81,0.00,,---,0.15,VWS V13.01,2013-03-07 12:14:00,
2013-03-07 14:19:00,54.1,48.4,29.97,ENE,67,0.0,1.1,81,0.00,,---,0.15,VWS V13.01,2013-03-07 12:19:00,
2013-03-07 14:24:00,54.3,48.6,29.97,North,0,0.7,1.3,81,0.00,,---,0.15,VWS V13.01,2013-03-07 12:24:00,
2013-03-07 14:29:00,54.7,49.0,29.97,North,0,1.8,3.4,81,0.00,,---,0.15,VWS V13.01,2013-03-07 12:29:00,
2013-03-07 14:34:00,54.9,49.2,29.97,North,0,2.7,4.7,81,0.00,,---,0.15,VWS V13.01,2013-03-07 12:34:00,
2013-03-07 14:39:00,55.0,49.3,29.96,NNW,337,0.0,3.6,81,0.00,,---,0.15,VWS V13.01,2013-03-07 12:39:00,
2013-03-07 14:44:00,55.2,49.5,29.96,NNW,337,0.0,2.9,81,0.00,,---,0.15,VWS V13.01,2013-03-07 12:44:00,
2013-03-07 14:49:00,55.4,49.7,29.96,North,0,2.5,6.3,81,0.00,,---,0.15,VWS V13.01,2013-03-07 12:49:00,
2013-03-07 14:54:00,55.6,49.9,29.96,NNE,22,4.3,5.6,81,0.00,,---,0.15,VWS V13.01,2013-03-07 12:54:00,
2013-03-07 14:59:00,55.8,49.7,29.96,NNE,22,2.5,4.3,80,0.00,,---,0.15,VWS V13.01,2013-03-07 12:59:00,
2013-03-07 15:04:00,55.9,49.8,29.96,North,0,3.8,3.8,80,0.00,,---,0.15,VWS V13.01,2013-03-07 13:04:00,
2013-03-07 15:09:00,56.1,50.0,29.96,North,0,1.8,3.8,80,0.00,,---,0.15,VWS V13.01,2013-03-07 13:09:00,
2013-03-07 15:14:00,56.3,49.9,29.96,NE,45,0.0,1.3,79,0.00,,---,0.15,VWS V13.01,2013-03-07 13:14:00,
2013-03-07 15:19:00,56.5,50.1,29.96,NE,45,0.0,1.3,79,0.00,,---,0.15,VWS V13.01,2013-03-07 13:19:00,
2013-03-07 15:24:00,56.5,50.1,29.96,NE,45,0.0,2.0,79,0.00,,---,0.15,VWS V13.01,2013-03-07 13:24:00,
2013-03-07 15:29:00,56.8,50.4,29.95,North,0,0.0,1.6,79,0.00,,---,0.15,VWS V13.01,2013-03-07 13:29:00,
2013-03-07 15:34:00,56.8,50.4,29.95,NE,45,0.0,2.7,79,0.00,,---,0.15,VWS V13.01,2013-03-07 13:34:00,
2013-03-07 15:40:00,56.8,50.4,29.95,NNE,22,0.0,2.0,79,0.00,,---,0.15,VWS V13.01,2013-03-07 13:40:00,
2013-03-07 15:44:00,56.8,50.4,29.95,NE,45,0.0,1.3,79,0.00,,---,0.15,VWS V13.01,2013-03-07 13:44:00,
2013-03-07 15:50:00,56.8,50.4,29.95,ESE,112,0.0,1.8,79,0.00,,---,0.15,VWS V13.01,2013-03-07 13:50:00,
2013-03-07 15:55:00,56.8,50.4,29.94,ENE,67,0.0,2.7,79,0.00,,---,0.15,VWS V13.01,2013-03-07 13:55:00,
2013-03-07 16:00:00,56.8,50.4,29.94,NNE,22,2.0,2.0,79,0.00,,---,0.15,VWS V13.01,2013-03-07 14:00:00,
2013-03-07 16:05:00,56.8,50.4,29.94,ENE,67,2.0,2.9,79,0.00,,---,0.15,VWS V13.01,2013-03-07 14:05:00,
2013-03-07 16:10:00,56.8,50.4,29.94,SE,135,0.0,1.6,79,0.00,,---,0.15,VWS V13.01,2013-03-07 14:10:00,
2013-03-07 16:15:00,56.8,50.4,29.94,SSE,157,0.0,1.1,79,0.00,,---,0.15,VWS V13.01,2013-03-07 14:15:00,
2013-03-07 16:20:00,56.8,50.4,29.94,North,0,0.0,1.6,79,0.00,,---,0.15,VWS V13.01,2013-03-07 14:20:00,
2013-03-07 16:25:00,57.0,50.6,29.93,ENE,67,0.0,5.1,79,0.00,,---,0.15,VWS V13.01,2013-03-07 14:25:00,
2013-03-07 16:30:00,57.0,50.6,29.93,ENE,67,0.0,3.8,79,0.00,,---,0.15,VWS V13.01,2013-03-07 14:30:00,
2013-03-07 16:35:00,57.0,50.6,29.93,NE,45,0.0,1.1,79,0.00,,---,0.15,VWS V13.01,2013-03-07 14:35:00,
2013-03-07 16:40:00,57.0,50.6,29.93,ENE,67,0.0,0.9,79,0.00,,---,0.15,VWS V13.01,2013-03-07 14:40:00,
2013-03-07 16:45:00,57.0,50.6,29.93,ENE,67,0.0,2.0,79,0.00,,---,0.15,VWS V13.01,2013-03-07 14:45:00,
2013-03-07 16:50:00,57.0,50.6,29.93,NE,45,0.0,1.8,79,0.00,,---,0.15,VWS V13.01,2013-03-07 14:50:00,
2013-03-07 16:55:00,57.0,50.6,29.92,ENE,67,0.0,2.2,79,0.00,,---,0.15,VWS V13.01,2013-03-07 14:55:00,
2013-03-07 17:00:00,57.0,50.6,29.93,NE,45,3.1,3.1,79,0.00,,---,0.15,VWS V13.01,2013-03-07 15:00:00,
2013-03-07 17:05:00,57.0,50.6,29.92,ENE,67,2.2,3.1,79,0.00,,---,0.15,VWS V13.01,2013-03-07 15:05:00,
2013-03-07 17:10:00,57.0,50.6,29.92,ENE,67,0.0,2.9,79,0.00,,---,0.15,VWS V13.01,2013-03-07 15:10:00,
2013-03-07 17:17:00,57.0,50.6,29.92,ESE,112,0.0,3.1,79,0.00,,---,0.15,VWS V13.01,2013-03-07 15:17:00,
2013-03-07 17:22:00,57.0,50.6,29.92,ENE,67,0.0,3.6,79,0.00,,---,0.15,VWS V13.01,2013-03-07 15:22:00,
2013-03-07 17:28:00,57.0,50.2,29.92,NE,45,0.0,3.6,78,0.00,,---,0.15,VWS V13.01,2013-03-07 15:28:00,
2013-03-07 17:33:00,56.8,50.0,29.91,ESE,112,0.0,1.3,78,0.00,,---,0.15,VWS V13.01,2013-03-07 15:33:00,
2013-03-07 17:38:00,57.0,50.2,29.91,NE,45,0.0,2.0,78,0.00,,---,0.15,VWS V13.01,2013-03-07 15:38:00,
2013-03-07 17:43:00,56.8,50.0,29.91,East,90,0.0,1.1,78,0.00,,---,0.15,VWS V13.01,2013-03-07 15:43:00,
2013-03-07 17:48:00,56.8,50.4,29.91,North,0,0.0,1.1,79,0.00,,---,0.15,VWS V13.01,2013-03-07 15:48:00,
2013-03-07 17:53:00,56.8,50.0,29.91,SE,135,0.0,1.3,78,0.00,,---,0.15,VWS V13.01,2013-03-07 15:53:00,
2013-03-07 17:58:00,56.8,50.4,29.92,ESE,112,0.0,1.3,79,0.00,,---,0.15,VWS V13.01,2013-03-07 15:58:00,
2013-03-07 18:03:00,56.8,50.4,29.91,ESE,112,0.0,3.6,79,0.00,,---,0.15,VWS V13.01,2013-03-07 16:03:00,
2013-03-07 18:08:00,56.8,50.4,29.91,East,90,0.0,2.9,79,0.00,,---,0.15,VWS V13.01,2013-03-07 16:08:00,
2013-03-07 18:13:00,56.5,50.1,29.91,East,90,0.0,1.3,79,0.00,,---,0.15,VWS V13.01,2013-03-07 16:13:00,
2013-03-07 18:18:00,56.5,50.1,29.92,NE,45,0.0,1.6,79,0.00,,---,0.15,VWS V13.01,2013-03-07 16:18:00,
2013-03-07 18:23:00,56.5,50.1,29.92,ESE,112,0.0,0.7,79,0.00,,---,0.15,VWS V13.01,2013-03-07 16:23:00,
2013-03-07 18:28:00,56.5,50.1,29.92,East,90,1.3,1.6,79,0.00,,---,0.15,VWS V13.01,2013-03-07 16:28:00,
2013-03-07 18:33:00,56.3,50.2,29.92,SE,135,0.0,1.1,80,0.00,,---,0.15,VWS V13.01,2013-03-07 16:33:00,
2013-03-07 18:38:00,56.1,50.0,29.92,ESE,112,2.9,2.9,80,0.00,,---,0.15,VWS V13.01,2013-03-07 16:38:00,
2013-03-07 18:43:00,56.1,50.0,29.92,ENE,67,2.5,4.5,80,0.00,,---,0.15,VWS V13.01,2013-03-07 16:43:00,
2013-03-07 18:49:00,55.9,49.8,29.93,ENE,67,3.4,3.4,80,0.00,,---,0.15,VWS V13.01,2013-03-07 16:49:00,
2013-03-07 18:54:00,55.9,49.8,29.92,East,90,0.0,1.6,80,0.00,,---,0.15,VWS V13.01,2013-03-07 16:54:00,
2013-03-07 18:59:00,55.8,49.7,29.92,NNE,22,3.1,3.1,80,0.00,,---,0.15,VWS V13.01,2013-03-07 16:59:00,
2013-03-07 19:04:00,55.6,49.5,29.92,East,90,0.0,2.0,80,0.00,,---,0.15,VWS V13.01,2013-03-07 17:04:00,
2013-03-07 19:09:00,55.6,49.5,29.92,NE,45,0.0,2.7,80,0.00,,---,0.15,VWS V13.01,2013-03-07 17:09:00,
2013-03-07 19:14:00,55.6,49.5,29.92,NNE,22,2.0,4.5,80,0.00,,---,0.15,VWS V13.01,2013-03-07 17:14:00,
2013-03-07 19:19:00,55.4,49.3,29.92,ENE,67,3.1,3.1,80,0.00,,---,0.15,VWS V13.01,2013-03-07 17:19:00,
2013-03-07 19:24:00,55.4,49.3,29.92,East,90,0.0,2.2,80,0.00,,---,0.15,VWS V13.01,2013-03-07 17:24:00,
2013-03-07 19:29:00,55.2,49.2,29.92,ENE,67,0.0,2.2,80,0.00,,---,0.15,VWS V13.01,2013-03-07 17:29:00,
2013-03-07 19:34:00,55.2,49.2,29.93,North,0,0.0,2.2,80,0.00,,---,0.15,VWS V13.01,2013-03-07 17:34:00,
2013-03-07 19:39:00,55.2,49.2,29.92,ENE,67,0.0,2.2,80,0.00,,---,0.15,VWS V13.01,2013-03-07 17:39:00,
2013-03-07 19:44:00,55.2,49.2,29.92,North,0,0.0,2.2,80,0.00,,---,0.15,VWS V13.01,2013-03-07 17:44:00,
2013-03-07 19:49:00,55.2,49.2,29.92,NE,45,0.0,2.2,80,0.00,,---,0.15,VWS V13.01,2013-03-07 17:49:00,
2013-03-07 19:54:00,55.2,49.2,29.92,NNE,22,0.0,2.2,80,0.00,,---,0.15,VWS V13.01,2013-03-07 17:54:00,
2013-03-07 19:59:00,55.2,49.2,29.92,NNW,337,0.0,2.2,80,0.00,,---,0.15,VWS V13.01,2013-03-07 17:59:00,
2013-03-07 20:04:00,55.2,49.5,29.92,North,0,0.0,2.2,81,0.00,,---,0.15,VWS V13.01,2013-03-07 18:04:00,
2013-03-07 20:09:00,55.0,49.3,29.92,NW,315,0.0,2.2,81,0.00,,---,0.15,VWS V13.01,2013-03-07 18:09:00,
2013-03-07 20:15:00,55.0,49.3,29.92,NNW,337,0.0,2.2,81,0.00,,---,0.15,VWS V13.01,2013-03-07 18:15:00,
2013-03-07 20:20:00,55.0,49.3,29.92,NNW,337,0.0,1.3,81,0.00,,---,0.15,VWS V13.01,2013-03-07 18:20:00,
2013-03-07 20:27:00,55.0,49.3,29.92,NNE,22,1.3,1.3,81,0.00,,---,0.15,VWS V13.01,2013-03-07 18:27:00,
2013-03-07 20:32:00,54.9,49.2,29.92,NNE,22,0.0,1.1,81,0.00,,---,0.15,VWS V13.01,2013-03-07 18:32:00,
2013-03-07 20:37:00,54.9,49.2,29.92,NNE,22,0.0,1.6,81,0.00,,---,0.15,VWS V13.01,2013-03-07 18:37:00,
2013-03-07 21:40:00,54.5,49.1,29.91,NE,45,0.0,2.7,82,0.00,,---,0.15,VWS V13.01,2013-03-07 19:40:00,
2013-03-07 21:45:00,54.3,48.9,29.91,North,0,0.0,2.7,82,0.00,,---,0.15,VWS V13.01,2013-03-07 19:45:00,
2013-03-07 21:50:00,54.3,48.9,29.91,NNE,22,0.0,2.7,82,0.00,,---,0.15,VWS V13.01,2013-03-07 19:50:00,
2013-03-07 21:55:00,54.3,48.9,29.91,ENE,67,1.3,1.6,82,0.00,,---,0.15,VWS V13.01,2013-03-07 19:55:00,
2013-03-07 22:01:00,54.3,48.9,29.91,NNE,22,0.0,1.1,82,0.00,,---,0.15,VWS V13.01,2013-03-07 20:01:00,
2013-03-07 22:06:00,54.3,48.9,29.91,NNE,22,0.0,1.1,82,0.00,,---,0.15,VWS V13.01,2013-03-07 20:06:00,
2013-03-07 22:11:00,54.3,48.9,29.91,North,0,0.0,1.1,82,0.00,,---,0.15,VWS V13.01,2013-03-07 20:11:00,
2013-03-07 22:16:00,54.3,48.9,29.91,NNW,337,0.0,1.1,82,0.00,,---,0.15,VWS V13.01,2013-03-07 20:16:00,
2013-03-07 22:21:00,54.1,48.7,29.91,North,0,0.0,1.1,82,0.00,,---,0.15,VWS V13.01,2013-03-07 20:21:00,
2013-03-07 22:26:00,54.1,49.1,29.91,North,0,0.0,0.9,83,0.00,,---,0.15,VWS V13.01,2013-03-07 20:26:00,
2013-03-07 22:31:00,54.1,49.1,29.91,North,0,1.3,1.3,83,0.00,,---,0.15,VWS V13.01,2013-03-07 20:31:00,
2013-03-07 22:36:00,54.1,49.1,29.91,North,0,0.0,1.1,83,0.00,,---,0.15,VWS V13.01,2013-03-07 20:36:00,
2013-03-07 22:41:00,54.1,49.1,29.91,North,0,0.0,1.1,83,0.00,,---,0.15,VWS V13.01,2013-03-07 20:41:00,
2013-03-07 22:46:00,54.0,49.0,29.91,NNE,22,0.0,0.9,83,0.00,,---,0.15,VWS V13.01,2013-03-07 20:46:00,
2013-03-07 22:51:00,54.0,49.0,29.91,NNE,22,0.0,1.3,83,0.00,,---,0.15,VWS V13.01,2013-03-07 20:51:00,
2013-03-07 22:56:00,54.0,49.0,29.91,NNW,337,0.0,1.3,83,0.00,,---,0.15,VWS V13.01,2013-03-07 20:56:00,
2013-03-07 23:01:00,54.0,49.0,29.91,NNE,22,0.0,1.3,83,0.00,,---,0.15,VWS V13.01,2013-03-07 21:01:00,
2013-03-07 23:06:00,54.0,49.0,29.91,ENE,67,0.0,1.3,83,0.00,,---,0.15,VWS V13.01,2013-03-07 21:06:00,
2013-03-07 23:11:00,54.0,49.3,29.90,ENE,67,0.0,1.3,84,0.00,,---,0.17,VWS V13.01,2013-03-07 21:11:00,
2013-03-07 23:16:00,53.8,49.1,29.90,ESE,112,0.9,0.9,84,0.00,,---,0.17,VWS V13.01,2013-03-07 21:16:00,
2013-03-07 23:21:00,53.8,49.1,29.90,NE,45,0.0,0.9,84,0.00,,---,0.17,VWS V13.01,2013-03-07 21:21:00,
2013-03-07 23:26:00,53.6,48.9,29.90,ENE,67,0.0,0.9,84,0.00,,---,0.17,VWS V13.01,2013-03-07 21:26:00,
2013-03-07 23:31:00,53.4,48.7,29.90,NNE,22,0.0,0.9,84,0.00,,---,0.17,VWS V13.01,2013-03-07 21:31:00,
2013-03-07 23:36:00,53.4,48.7,29.90,ENE,67,0.0,0.9,84,0.00,,---,0.17,VWS V13.01,2013-03-07 21:36:00,
2013-03-07 23:41:00,53.4,48.7,29.90,ENE,67,0.0,1.3,84,0.00,,---,0.17,VWS V13.01,2013-03-07 21:41:00,
2013-03-07 23:46:00,53.2,48.5,29.90,East,90,0.0,1.3,84,0.00,,---,0.17,VWS V13.01,2013-03-07 21:46:00,
2013-03-07 23:51:00,53.2,48.5,29.90,NW,315,0.0,1.8,84,0.00,,---,0.17,VWS V13.01,2013-03-07 21:51:00,
2013-03-07 23:56:00,53.1,48.4,29.90,ENE,67,0.0,2.0,84,0.00,,---,0.17,VWS V13.01,2013-03-07 21:56:00,